国际通讯卫星 601星 (INTELSAT 601 (IS-601))

导读 | 星芒AI

INTELSAT 601(IS-601)是由美国洛克希德公司制造的一颗通信卫星,于1995年4月7日由航天飞机“亚特兰蒂斯号”发射。该卫星原定用于国际通信服务,但发射后因推进系统故障未能进入预定轨道,最终被遗留在低地球轨道。2007年,中国通过“天网工程”尝试用反卫星导弹将其摧毁,引发国际关注。此次事件产生了大量太空碎片,对其他卫星和国际空间站构成潜在威胁,也促使国际社会加强了对太空安全和可持续利用的讨论。

基本信息
目录编号:
21765
目录名称:
INTELSAT 601
国际标识:
1991-075A
轨道中心:
EARTH
卫星名称:
国际通讯卫星 601星
卫星全名:
国际通讯卫星 601星 (INTELSAT 601 (IS-601))
卫星状态:
在轨 (已飞行12419 天)
发射日期:
1991-10-29 UTC
国别 :
(ITSO)
星等 :
--
轨道信息
数据来源 国际轨道数据 AOE轨道数据
星历时间 2025-10-28T04:40:18+0800
1天前
查看轨道信息
2025-10-28T02:00:00+0800
1天前
查看轨道信息
半长轴 42358.312km 42357.972km
偏心率 0.0003073 0.0003364
轨道倾角 13.158° 13.158°
近地点辐角 239.399° 238.722°
升交点赤经 18.605° 18.603°
平近点角 171.923° 132.698°
近地点 35967.16km 35965.587km
远地点 35993.194km 35994.087km
周期 1445.998分钟 1445.981分钟
每日圈数 0.995852 0.995864
详细信息
卫星平台:
Intelsat VA
平衡模式:
三轴稳定
覆盖范围:
全球
运营商:
国际卫星通信公司
运营商所在国:
美国
制造商(研发单位):
休斯公司
制造商所在国:
美国
使用方式:
暂无
卫星简介
从1965年4月至1984年3月,国际通信卫星组织发射了5代、6种不同性能的卫星共计35颗,除6颗卫星因运载火箭和远地点发动机故障而发射失败外,其余29颗卫星均被送到了预定的静止轨道位置。1984年8月前后,国际通信卫星组织利用部署在大西洋、太平洋、印度洋上空的15颗国际通信卫星,为遍布世界各地170多个国家或地区提供电话、电传、电报、电视和数据传输等电信业务;该卫星已退役。
2D轨道图
3D轨道图
轨道高度分析图
轨道倾角分析图
轨道综合分析图
查看轨道综合分析图